Location: Buch
(49.7331°N, 12.1098°E)
Time: 10:07:01
(UTC+00:00)

Cosmos 1666 - Pass Details

Date: 12 May 2021
Orbit: 495 x 519 km, 82.5° (Epoch: 13 June)

Event Time Altitude Azimuth Distance (km) Brightness Sun altitude
Rises 20:35:02 0° 347° (NNW) 2,602 7.5 -14.0°
Reaches altitude 10° 20:37:10 10° 345° (NNW) 1,711 6.5 -14.2°
Maximum altitude 20:40:53 67° 263° (W) 542 2.8 -14.5°
Enters shadow 20:43:14 21° 184° (S) 1,163 4.0 -14.8°
